This is the latest recevied weather packets stored in our database for station/object W8CEN. If no packets are shown the sender has not sent any weather packets the latest 1 day(s).
| Time | Temp. | Humidity | Pressure | Rain* | Wind** | Luminosity | Snow |
|---|---|---|---|---|---|---|---|
| 1778002250 | 15.56° C | 69% | 986.1 hPa | 0 mm | 0 m/s | 111 W/m² | - |
| 1778001948 | 15.56° C | 69% | 986.3 hPa | 0 mm | 0 m/s | 130 W/m² | - |
| 1778001644 | 15.56° C | 67% | 986.3 hPa | 0 mm | 0.45 m/s, 262° | 154 W/m² | - |
| 1778001339 | 15° C | 70% | 986.3 hPa | 0 mm | 0 m/s | 117 W/m² | - |
| 1778001036 | 15.56° C | 71% | 986.5 hPa | 0 mm | 0.45 m/s, 253° | 78 W/m² | - |
| 1778000733 | 15.56° C | 72% | 986.2 hPa | 0 mm | 0 m/s | 85 W/m² | - |
| 1778000429 | 15.56° C | 73% | 986.3 hPa | 0 mm | 0 m/s | 100 W/m² | - |
| 1778000125 | 15.56° C | 73% | 986.2 hPa | 0 mm | 0.89 m/s, 1° | 100 W/m² | - |
| 1777999820 | 15.56° C | 72% | 986.2 hPa | 0 mm | 0.89 m/s, 268° | 75 W/m² | - |
| 1777999517 | 15.56° C | 73% | 986.4 hPa | 0 mm | 0.45 m/s, 338° | 60 W/m² | - |
| 1777999215 | 16.11° C | 73% | 986.4 hPa | 0 mm | 0.89 m/s, 237° | 55 W/m² | - |
| 1777998913 | 16.11° C | 72% | 986.3 hPa | 0 mm | 0.45 m/s, 289° | 70 W/m² | - |
| 1777998609 | 16.11° C | 71% | 986.3 hPa | 0 mm | 0.89 m/s, 257° | 59 W/m² | - |
| 1777998303 | 16.11° C | 72% | 986.3 hPa | 0 mm | 0.89 m/s, 319° | 62 W/m² | - |
| 1777998000 | 16.11° C | 71% | 986.2 hPa | 0 mm | 1.34 m/s, 267° | 49 W/m² | - |
| 1777997696 | 16.11° C | 72% | 986.4 hPa | 0 mm | 0.89 m/s, 267° | 53 W/m² | - |
| 1777997394 | 16.11° C | 71% | 986.2 hPa | 0 mm | 1.34 m/s, 277° | 70 W/m² | - |
| 1777997092 | 16.11° C | 72% | 986.4 hPa | 0 mm | 1.79 m/s, 241° | 71 W/m² | - |
| 1777996788 | 16.67° C | 71% | 986.2 hPa | 0 mm | 0.89 m/s, 243° | 60 W/m² | - |
| 1777996485 | 16.67° C | 71% | 986.3 hPa | 0 mm | 1.79 m/s, 231° | 60 W/m² | - |
| 1777996182 | 16.67° C | 71% | 986.1 hPa | 0 mm | 1.34 m/s, 229° | 73 W/m² | - |
| 1777995878 | 16.67° C | 70% | 986.2 hPa | 0 mm | 1.34 m/s, 266° | 73 W/m² | - |
| 1777995574 | 16.67° C | 70% | 986.1 hPa | 0 mm | 1.34 m/s, 320° | 127 W/m² | - |
| 1777995272 | 16.67° C | 70% | 986.1 hPa | 0 mm | 1.79 m/s, 284° | 150 W/m² | - |
| 1777994968 | 16.67° C | 70% | 986 hPa | 0 mm | 1.79 m/s, 245° | 133 W/m² | - |
* Rain latest hour (hover to see other rain measurements)
** Current wind speed in m/s (hover to see current wind gust speed)